STARLINK-36744, 67987

Orbit data source: Space-Track

STARLINK-36744, 67987 is a payload satellite owned by SpaceX/Seattle (US) in LEO that was launched on Fri, 27 Feb 2026 UTC via an FALCON 9 launch vehicle from the Air Force Eastern Test Range (AFETR). Payload-class satellites include a variety of spacecraft equipped with specific instruments for various scientific and technological missions. These include communications satellites like Starlink; space stations such as the ISS; scientific satellites like the Hubble; Earth observation satellites from companies like Planet Labs, Umbra, and HawkEye 360; GPS; miniature CubeSats for education and research; and military/defense satellites.

Loading next visibility...
Identifier
67987, 2026-039B
Orbit
LEO
Country
Flag of USUS
Related business
Manufacturer
SpaceX/Seattle
Mission
Operational Commercial Communications
Bus & Motor
STARLINK V2MO, Unknown motor
Mass
575 kg wet, ~530 kg dry
Launch date (UTC)
2026-02-27 (4 months ago)
Launch vehicle
FALCON 9
Launch site
Air Force Eastern Test Range (AFETR)
Object type
Payload
Rocket body
Debris
Shape & HBR
Box + 2 Pan, 17.7 m
Radar Cross Section
36.964 m², Large (>1 m²)

Expand to show TLE details & history
Last TLE update: 19 hours ago

TLE from 19 hours ago
0 STARLINK-36744
1 67987U 26039B   26171.04616034  .00018828  00000-0  69155-3 0  9994
2 67987  43.0039 191.2187 0001453 280.3647  79.7041 15.27600944 17352
Epoch: 2026-06-20T01:06Z
TLE epoch observation values (Epoch: 2026-06-20T01:06:28.253Z)
Latitude
-0.00001°
Longitude
-93.66544°
Altitude
482.584 km
Speed
7.626 km/s
True Right ascension
12h 44m 52s
True Declination
0° 00' 00"
Sunlit
Object was in daylight at epoch
Visualization orbit readout
Latitude
Unknown
Longitude
Unknown
Altitude
Unknown
Speed
Unknown
Apparent Right ascension
Unknown
Apparent Declination
Unknown
Sunlit
N/A
Visualization observer readout
Local Sidereal Time
07:19:28
Azimuth
Unknown
Elevation
Unknown
Doppler factor
Unknown
Orbital elements
Apogee altitude
485.928 km
Perigee altitude
483.934 km
Semi-major axis
6,863.068 km
Eccentricity
0.00015
Inclination
43.0039°
RAAN
191.2187°
Arg. of periapsis
280.3647°
True anomaly
79.72048°
Mean anomaly
79.7041°
Eccentric anomaly
79.71229°
Mean motion
3.81738 °/min
Orbital period
94.31 mins
BSTAR
0.00069155
Loading maneuver chart data...
Computing Atmospheric mass density...
Loading historical data...
Loading historical data...
Loading historical data...
Loading historical data...
Loading historical data...
Loading historical data...
Loading historical data...

Documentation

Showing up to 5 results
|